Location: Basse Occidentale du Courleau
(48.3833°N, 4.8333°W)
Time: 19:24:45
(UTC+00:00)

Cosmos 1980 - Pass Details

Date: 05 July 2020
Orbit: 839 x 847 km, 71.0° (Epoch: 05 August)

Event Time Altitude Azimuth Distance (km) Brightness Sun altitude
Exits shadow 23:38:30 13° 224° (SW) 2,253 5.6 -18.2°
Maximum altitude 23:43:31 59° 302° (WNW) 965 4.2 -18.4°
Drops below altitude 10° 23:49:07 10° 22° (NNE) 2,468 7.0 -18.5°
Sets 23:51:37 0° 27° (NNE) 3,407 7.8 -18.6°
